Location: *
(51.1248°S, 108.4023°W)
Time: 05:02:33
(UTC+00:00)

Lacrosse 4 Rocket - Pass Details

Date: 15 June 2021
Orbit: 543 x 614 km, 68.0° (Epoch: 31 July)

Event Time Altitude Azimuth Distance (km) Brightness Sun altitude
Rises 14:08:25 0° 320° (NW) 2,753 4.7 -10.0°
Reaches altitude 10° 14:10:37 10° 317° (NW) 1,874 3.9 -9.7°
Maximum altitude 14:14:48 70° 233° (SW) 626 1.4 -9.1°
Drops below altitude 10° 14:19:09 10° 148° (SSE) 1,940 4.2 -8.5°
Sets 14:21:27 0° 145° (SE) 2,860 5.1 -8.1°
